Year,Month,Day,Hour,Minute,Value (Times are PST for temperature in C)
2015,06,30,00,00,22.80
2015,06,30,00,01,22.80
2015,06,30,00,02,22.80
2015,06,30,00,03,22.80
2015,06,30,00,04,22.80
2015,06,30,00,05,22.80
2015,06,30,00,06,22.80
2015,06,30,00,07,22.80
2015,06,30,00,08,22.80
2015,06,30,00,09,22.80
2015,06,30,00,10,22.80
2015,06,30,00,11,22.80
2015,06,30,00,12,22.80
2015,06,30,00,13,22.80
2015,06,30,00,14,22.90
2015,06,30,00,15,22.90
2015,06,30,00,16,22.90
2015,06,30,00,17,22.90
2015,06,30,00,18,22.90
2015,06,30,00,19,22.90
2015,06,30,00,20,22.90
2015,06,30,00,21,22.90
2015,06,30,00,22,22.90
2015,06,30,00,23,22.90
2015,06,30,00,24,22.90
2015,06,30,00,25,22.90
2015,06,30,00,26,22.90
2015,06,30,00,27,22.90
2015,06,30,00,28,22.90
2015,06,30,00,29,22.90
2015,06,30,00,30,22.90
2015,06,30,00,31,22.90
2015,06,30,00,32,22.90
2015,06,30,00,33,22.90
2015,06,30,00,34,22.90
2015,06,30,00,35,22.90
2015,06,30,00,36,22.80
2015,06,30,00,37,22.80
2015,06,30,00,38,22.80
2015,06,30,00,39,22.80
2015,06,30,00,40,22.80
2015,06,30,00,41,22.80
2015,06,30,00,42,22.80
2015,06,30,00,43,22.70
2015,06,30,00,44,22.70
2015,06,30,00,45,22.70
2015,06,30,00,46,22.70
2015,06,30,00,47,22.70
2015,06,30,00,48,22.60
2015,06,30,00,49,22.60
2015,06,30,00,50,22.60
2015,06,30,00,51,22.60
2015,06,30,00,52,22.60
2015,06,30,00,53,22.60
2015,06,30,00,54,22.60
2015,06,30,00,55,22.60
2015,06,30,00,56,22.60
2015,06,30,00,57,22.60
2015,06,30,00,58,22.60
2015,06,30,00,59,22.60
2015,06,30,01,00,22.50
2015,06,30,01,01,22.50
2015,06,30,01,02,22.50
2015,06,30,01,03,22.50
2015,06,30,01,04,22.40
2015,06,30,01,05,22.40
2015,06,30,01,06,22.40
2015,06,30,01,07,22.40
2015,06,30,01,08,22.40
2015,06,30,01,09,22.40
2015,06,30,01,10,22.40
2015,06,30,01,11,22.40
2015,06,30,01,12,22.40
2015,06,30,01,13,22.30
2015,06,30,01,14,22.30
2015,06,30,01,15,22.30
2015,06,30,01,16,22.20
2015,06,30,01,17,22.20
2015,06,30,01,18,22.20
2015,06,30,01,19,22.10
2015,06,30,01,20,22.10
2015,06,30,01,21,22.00
2015,06,30,01,22,21.90
2015,06,30,01,23,21.90
2015,06,30,01,24,21.80
2015,06,30,01,25,21.70
2015,06,30,01,26,21.60
2015,06,30,01,27,21.50
2015,06,30,01,28,21.40
2015,06,30,01,29,21.30
2015,06,30,01,30,21.30
2015,06,30,01,31,21.20
2015,06,30,01,32,21.10
2015,06,30,01,33,21.10
2015,06,30,01,34,21.10
2015,06,30,01,35,21.10
2015,06,30,01,36,21.00
2015,06,30,01,37,21.00
2015,06,30,01,38,20.90
2015,06,30,01,39,20.90
2015,06,30,01,40,20.90
2015,06,30,01,41,20.90
2015,06,30,01,42,20.90
2015,06,30,01,43,20.80
2015,06,30,01,44,20.80
2015,06,30,01,45,20.80
2015,06,30,01,46,20.80
2015,06,30,01,47,20.70
2015,06,30,01,48,20.70
2015,06,30,01,49,20.70
2015,06,30,01,50,20.70
2015,06,30,01,51,20.70
2015,06,30,01,52,20.70
2015,06,30,01,53,20.70
2015,06,30,01,54,20.70
2015,06,30,01,55,20.70
2015,06,30,01,56,20.70
2015,06,30,01,57,20.80
2015,06,30,01,58,20.80
2015,06,30,01,59,20.80
2015,06,30,02,00,20.80
2015,06,30,02,01,20.80
2015,06,30,02,02,20.90
2015,06,30,02,03,20.90
2015,06,30,02,04,20.90
2015,06,30,02,05,20.90
2015,06,30,02,06,20.90
2015,06,30,02,07,20.90
2015,06,30,02,08,20.90
2015,06,30,02,09,20.80
2015,06,30,02,10,20.80
2015,06,30,02,11,20.80
2015,06,30,02,12,20.80
2015,06,30,02,13,20.70
2015,06,30,02,14,20.70
2015,06,30,02,15,20.70
2015,06,30,02,16,20.70
2015,06,30,02,17,20.70
2015,06,30,02,18,20.70
2015,06,30,02,19,20.70
2015,06,30,02,20,20.60
2015,06,30,02,21,20.60
2015,06,30,02,22,20.60
2015,06,30,02,23,20.70
2015,06,30,02,24,20.70
2015,06,30,02,25,20.70
2015,06,30,02,26,20.70
2015,06,30,02,27,20.70
2015,06,30,02,28,20.70
2015,06,30,02,29,20.70
2015,06,30,02,30,20.70
2015,06,30,02,31,20.70
2015,06,30,02,32,20.70
2015,06,30,02,33,20.70
2015,06,30,02,34,20.60
2015,06,30,02,35,20.60
2015,06,30,02,36,20.60
2015,06,30,02,37,20.60
2015,06,30,02,38,20.60
2015,06,30,02,39,20.60
2015,06,30,02,40,20.60
2015,06,30,02,41,20.60
2015,06,30,02,42,20.60
2015,06,30,02,43,20.60
2015,06,30,02,44,20.60
2015,06,30,02,45,20.60
2015,06,30,02,46,20.50
2015,06,30,02,47,20.50
2015,06,30,02,48,20.50
2015,06,30,02,49,20.40
2015,06,30,02,50,20.40
2015,06,30,02,51,20.40
2015,06,30,02,52,20.40
2015,06,30,02,53,20.40
2015,06,30,02,54,20.30
2015,06,30,02,55,20.30
2015,06,30,02,56,20.20
2015,06,30,02,57,20.20
2015,06,30,02,58,20.20
2015,06,30,02,59,20.10
2015,06,30,03,00,20.00
2015,06,30,03,01,20.00
2015,06,30,03,02,19.90
2015,06,30,03,03,19.90
2015,06,30,03,04,19.80
2015,06,30,03,05,19.80
2015,06,30,03,06,19.70
2015,06,30,03,07,19.70
2015,06,30,03,08,19.60
2015,06,30,03,09,19.60
2015,06,30,03,10,19.50
2015,06,30,03,11,19.50
2015,06,30,03,12,19.40
2015,06,30,03,13,19.30
2015,06,30,03,14,19.30
2015,06,30,03,15,19.20
2015,06,30,03,16,19.20
2015,06,30,03,17,19.10
2015,06,30,03,18,19.10
2015,06,30,03,19,19.10
2015,06,30,03,20,19.00
2015,06,30,03,21,18.90
2015,06,30,03,22,18.90
2015,06,30,03,23,18.90
2015,06,30,03,24,18.80
2015,06,30,03,25,18.80
2015,06,30,03,26,18.70
2015,06,30,03,27,18.70
2015,06,30,03,28,18.70
2015,06,30,03,29,18.70
2015,06,30,03,30,18.70
2015,06,30,03,31,18.60
2015,06,30,03,32,18.60
2015,06,30,03,33,18.60
2015,06,30,03,34,18.50
2015,06,30,03,35,18.50
2015,06,30,03,36,18.40
2015,06,30,03,37,18.40
2015,06,30,03,38,18.40
2015,06,30,03,39,18.40
2015,06,30,03,40,18.30
2015,06,30,03,41,18.30
2015,06,30,03,42,18.30
2015,06,30,03,43,18.30
2015,06,30,03,44,18.20
2015,06,30,03,45,18.20
2015,06,30,03,46,18.20
2015,06,30,03,47,18.20
2015,06,30,03,48,18.20
2015,06,30,03,49,18.10
2015,06,30,03,50,18.10
2015,06,30,03,51,18.10
2015,06,30,03,52,18.10
2015,06,30,03,53,18.00
2015,06,30,03,54,18.00
2015,06,30,03,55,17.90
2015,06,30,03,56,17.90
2015,06,30,03,57,17.90
2015,06,30,03,58,17.80
2015,06,30,03,59,17.80
2015,06,30,04,00,17.80
2015,06,30,04,01,17.80
2015,06,30,04,02,17.80
2015,06,30,04,03,17.70
2015,06,30,04,04,17.70
2015,06,30,04,05,17.70
2015,06,30,04,06,17.70
2015,06,30,04,07,17.70
2015,06,30,04,08,17.70
2015,06,30,04,09,17.70
2015,06,30,04,10,17.60
2015,06,30,04,11,17.60
2015,06,30,04,12,17.60
2015,06,30,04,13,17.60
2015,06,30,04,14,17.60
2015,06,30,04,15,17.50
2015,06,30,04,16,17.50
2015,06,30,04,17,17.50
2015,06,30,04,18,17.40
2015,06,30,04,19,17.40
2015,06,30,04,20,17.40
2015,06,30,04,21,17.40
2015,06,30,04,22,17.40
2015,06,30,04,23,17.40
2015,06,30,04,24,17.40
2015,06,30,04,25,17.30
2015,06,30,04,26,17.30
2015,06,30,04,27,17.30
2015,06,30,04,28,17.30
2015,06,30,04,29,17.30
2015,06,30,04,30,17.20
2015,06,30,04,31,17.20
2015,06,30,04,32,17.20
2015,06,30,04,33,17.20
2015,06,30,04,34,17.10
2015,06,30,04,35,17.10
2015,06,30,04,36,17.10
2015,06,30,04,37,17.00
2015,06,30,04,38,17.00
2015,06,30,04,39,17.00
2015,06,30,04,40,16.90
2015,06,30,04,41,16.90
2015,06,30,04,42,16.90
2015,06,30,04,43,16.90
2015,06,30,04,44,16.90
2015,06,30,04,45,16.80
2015,06,30,04,46,16.80
2015,06,30,04,47,16.80
2015,06,30,04,48,16.80
2015,06,30,04,49,16.80
2015,06,30,04,50,16.80
2015,06,30,04,51,16.70
2015,06,30,04,52,16.70
2015,06,30,04,53,16.70
2015,06,30,04,54,16.70
2015,06,30,04,55,16.70
2015,06,30,04,56,16.70
2015,06,30,04,57,16.70
2015,06,30,04,58,16.60
2015,06,30,04,59,16.60
2015,06,30,05,00,16.60
2015,06,30,05,01,16.60
2015,06,30,05,02,16.60
2015,06,30,05,03,16.60
2015,06,30,05,04,16.60
2015,06,30,05,05,16.60
2015,06,30,05,06,16.60
2015,06,30,05,07,16.60
2015,06,30,05,08,16.60
2015,06,30,05,09,16.60
2015,06,30,05,10,16.60
2015,06,30,05,11,16.60
2015,06,30,05,12,16.50
2015,06,30,05,13,16.50
2015,06,30,05,14,16.50
2015,06,30,05,15,16.50
2015,06,30,05,16,16.50
2015,06,30,05,17,16.50
2015,06,30,05,18,16.50
2015,06,30,05,19,16.50
2015,06,30,05,20,16.50
2015,06,30,05,21,16.50
2015,06,30,05,22,16.50
2015,06,30,05,23,16.50
2015,06,30,05,24,16.50
2015,06,30,05,25,16.50
2015,06,30,05,26,16.50
2015,06,30,05,27,16.40
2015,06,30,05,28,16.40
2015,06,30,05,29,16.40
2015,06,30,05,30,16.40
2015,06,30,05,31,16.40
2015,06,30,05,32,16.40
2015,06,30,05,33,16.40
2015,06,30,05,34,16.40
2015,06,30,05,35,16.40
2015,06,30,05,36,16.40
2015,06,30,05,37,16.40
2015,06,30,05,38,16.40
2015,06,30,05,39,16.40
2015,06,30,05,40,16.40
2015,06,30,05,41,16.40
2015,06,30,05,42,16.40
2015,06,30,05,43,16.40
2015,06,30,05,44,16.40
2015,06,30,05,45,16.50
2015,06,30,05,46,16.50
2015,06,30,05,47,16.50
2015,06,30,05,48,16.50
2015,06,30,05,49,16.60
2015,06,30,05,50,16.60
2015,06,30,05,51,16.60
2015,06,30,05,52,16.60
2015,06,30,05,53,16.70
2015,06,30,05,54,16.70
2015,06,30,05,55,16.70
2015,06,30,05,56,16.70
2015,06,30,05,57,16.80
2015,06,30,05,58,16.80
2015,06,30,05,59,16.90
2015,06,30,06,00,16.90
2015,06,30,06,01,17.00
2015,06,30,06,02,17.00
2015,06,30,06,03,17.10
2015,06,30,06,04,17.10
2015,06,30,06,05,17.20
2015,06,30,06,06,17.20
2015,06,30,06,07,17.30
2015,06,30,06,08,17.30
2015,06,30,06,09,17.40
2015,06,30,06,10,17.40
2015,06,30,06,11,17.40
2015,06,30,06,12,17.50
2015,06,30,06,13,17.50
2015,06,30,06,14,17.60
2015,06,30,06,15,17.60
2015,06,30,06,16,17.70
2015,06,30,06,17,17.70
2015,06,30,06,18,17.80
2015,06,30,06,19,17.80
2015,06,30,06,20,17.90
2015,06,30,06,21,18.00
2015,06,30,06,22,18.00
2015,06,30,06,23,18.10
2015,06,30,06,24,18.10
2015,06,30,06,25,18.20
2015,06,30,06,26,18.30
2015,06,30,06,27,18.30
2015,06,30,06,28,18.40
2015,06,30,06,29,18.40
2015,06,30,06,30,18.50
2015,06,30,06,31,18.60
2015,06,30,06,32,18.70
2015,06,30,06,33,18.70
2015,06,30,06,34,18.80
2015,06,30,06,35,18.90
2015,06,30,06,36,18.90
2015,06,30,06,37,19.00
2015,06,30,06,38,19.10
2015,06,30,06,39,19.10
2015,06,30,06,40,19.20
2015,06,30,06,41,19.20
2015,06,30,06,42,19.30
2015,06,30,06,43,19.30
2015,06,30,06,44,19.40
2015,06,30,06,45,19.50
2015,06,30,06,46,19.50
2015,06,30,06,47,19.60
2015,06,30,06,48,19.60
2015,06,30,06,49,19.70
2015,06,30,06,50,19.70
2015,06,30,06,51,19.70
2015,06,30,06,52,19.80
2015,06,30,06,53,19.80
2015,06,30,06,54,19.80
2015,06,30,06,55,19.90
2015,06,30,06,56,19.90
2015,06,30,06,57,20.00
2015,06,30,06,58,20.00
2015,06,30,06,59,20.10
2015,06,30,07,00,20.10
2015,06,30,07,01,20.10
2015,06,30,07,02,20.20
2015,06,30,07,03,20.20
2015,06,30,07,04,20.20
2015,06,30,07,05,20.30
2015,06,30,07,06,20.30
2015,06,30,07,07,20.40
2015,06,30,07,08,20.50
2015,06,30,07,09,20.50
2015,06,30,07,10,20.60
2015,06,30,07,11,20.70
2015,06,30,07,12,20.70
2015,06,30,07,13,20.80
2015,06,30,07,14,20.90
2015,06,30,07,15,21.00
2015,06,30,07,16,21.10
2015,06,30,07,17,21.10
2015,06,30,07,18,21.20
2015,06,30,07,19,21.30
2015,06,30,07,20,21.30
2015,06,30,07,21,21.30
2015,06,30,07,22,21.30
2015,06,30,07,23,21.30
2015,06,30,07,24,21.30
2015,06,30,07,25,21.30
2015,06,30,07,26,21.30
2015,06,30,07,27,21.20
2015,06,30,07,28,21.20
2015,06,30,07,29,21.20
2015,06,30,07,30,21.10
2015,06,30,07,31,21.10
2015,06,30,07,32,21.10
2015,06,30,07,33,21.10
2015,06,30,07,34,21.10
2015,06,30,07,35,21.20
2015,06,30,07,36,21.20
2015,06,30,07,37,21.20
2015,06,30,07,38,21.30
2015,06,30,07,39,21.30
2015,06,30,07,40,21.30
2015,06,30,07,41,21.40
2015,06,30,07,42,21.40
2015,06,30,07,43,21.40
2015,06,30,07,44,21.40
2015,06,30,07,45,21.40
2015,06,30,07,46,21.40
2015,06,30,07,47,21.40
2015,06,30,07,48,21.30
2015,06,30,07,49,21.30
2015,06,30,07,50,21.30
2015,06,30,07,51,21.30
2015,06,30,07,52,21.20
2015,06,30,07,53,21.20
2015,06,30,07,54,21.20
2015,06,30,07,55,21.20
2015,06,30,07,56,21.20
2015,06,30,07,57,21.20
2015,06,30,07,58,21.10
2015,06,30,07,59,21.10
2015,06,30,08,00,21.10
2015,06,30,08,01,21.10
2015,06,30,08,02,21.00
2015,06,30,08,03,21.00
2015,06,30,08,04,20.90
2015,06,30,08,05,20.90
2015,06,30,08,06,20.90
2015,06,30,08,07,20.90
2015,06,30,08,08,20.80
2015,06,30,08,09,20.80
2015,06,30,08,10,20.80
2015,06,30,08,11,20.80
2015,06,30,08,12,20.80
2015,06,30,08,13,20.80
2015,06,30,08,14,20.80
2015,06,30,08,15,20.80
2015,06,30,08,16,20.90
2015,06,30,08,17,20.90
2015,06,30,08,18,20.90
2015,06,30,08,19,21.00
2015,06,30,08,20,21.00
2015,06,30,08,21,21.10
2015,06,30,08,22,21.20
2015,06,30,08,23,21.20
2015,06,30,08,24,21.30
2015,06,30,08,25,21.30
2015,06,30,08,26,21.30
2015,06,30,08,27,21.40
2015,06,30,08,28,21.30
2015,06,30,08,29,21.40
2015,06,30,08,30,21.40
2015,06,30,08,31,21.40
2015,06,30,08,32,21.50
2015,06,30,08,33,21.50
2015,06,30,08,34,21.60
2015,06,30,08,35,21.60
2015,06,30,08,36,21.70
2015,06,30,08,37,21.70
2015,06,30,08,38,21.70
2015,06,30,08,39,21.70
2015,06,30,08,40,21.70
2015,06,30,08,41,21.70
2015,06,30,08,42,21.70
2015,06,30,08,43,21.70
2015,06,30,08,44,21.70
2015,06,30,08,45,21.60
2015,06,30,08,46,21.60
2015,06,30,08,47,21.60
2015,06,30,08,48,21.60
2015,06,30,08,49,21.60
2015,06,30,08,50,21.60
2015,06,30,08,51,21.50
2015,06,30,08,52,21.50
2015,06,30,08,53,21.40
2015,06,30,08,54,21.40
2015,06,30,08,55,21.40
2015,06,30,08,56,21.40
2015,06,30,08,57,21.30
2015,06,30,08,58,21.30
2015,06,30,08,59,21.30
2015,06,30,09,00,21.30
2015,06,30,09,01,21.30
2015,06,30,09,02,21.30
2015,06,30,09,03,21.30
2015,06,30,09,04,21.30
2015,06,30,09,05,21.30
2015,06,30,09,06,21.20
2015,06,30,09,07,21.20
2015,06,30,09,08,21.20
2015,06,30,09,09,21.20
2015,06,30,09,10,21.20
2015,06,30,09,11,21.20
2015,06,30,09,12,21.30
2015,06,30,09,13,21.30
2015,06,30,09,14,21.30
2015,06,30,09,15,21.30
2015,06,30,09,16,21.30
2015,06,30,09,17,21.30
2015,06,30,09,18,21.30
2015,06,30,09,19,21.30
2015,06,30,09,20,21.40
2015,06,30,09,21,21.40
2015,06,30,09,22,21.40
2015,06,30,09,23,21.40
2015,06,30,09,24,21.50
2015,06,30,09,25,21.50
2015,06,30,09,26,21.50
2015,06,30,09,27,21.60
2015,06,30,09,28,21.60
2015,06,30,09,29,21.60
2015,06,30,09,30,21.70
2015,06,30,09,31,21.70
2015,06,30,09,32,21.80
2015,06,30,09,33,21.80
2015,06,30,09,34,21.70
2015,06,30,09,35,21.70
2015,06,30,09,36,21.60
2015,06,30,09,37,21.60
2015,06,30,09,38,21.60
2015,06,30,09,39,21.50
2015,06,30,09,40,21.40
2015,06,30,09,41,21.40
2015,06,30,09,42,21.30
2015,06,30,09,43,21.30
2015,06,30,09,44,21.40
2015,06,30,09,45,21.40
2015,06,30,09,46,21.40
2015,06,30,09,47,21.40
2015,06,30,09,48,21.40
2015,06,30,09,49,21.40
2015,06,30,09,50,21.50
2015,06,30,09,51,21.60
2015,06,30,09,52,21.60
2015,06,30,09,53,21.60
2015,06,30,09,54,21.60
2015,06,30,09,55,21.60
2015,06,30,09,56,21.60
2015,06,30,09,57,21.60
2015,06,30,09,58,21.60
2015,06,30,09,59,21.60
2015,06,30,10,00,21.60
2015,06,30,10,01,21.60
2015,06,30,10,02,21.50
2015,06,30,10,03,21.50
2015,06,30,10,04,21.60
2015,06,30,10,05,21.60
2015,06,30,10,06,21.60
2015,06,30,10,07,21.50
2015,06,30,10,08,21.50
2015,06,30,10,09,21.50
2015,06,30,10,10,21.40
2015,06,30,10,11,21.40
2015,06,30,10,12,21.30
2015,06,30,10,13,21.30
2015,06,30,10,14,21.30
2015,06,30,10,15,21.30
2015,06,30,10,16,21.30
2015,06,30,10,17,21.30
2015,06,30,10,18,21.30
2015,06,30,10,19,21.40
2015,06,30,10,20,21.50
2015,06,30,10,21,21.50
2015,06,30,10,22,21.50
2015,06,30,10,23,21.40
2015,06,30,10,24,21.40
2015,06,30,10,25,21.40
2015,06,30,10,26,21.40
2015,06,30,10,27,21.40
2015,06,30,10,28,21.30
2015,06,30,10,29,21.30
2015,06,30,10,30,21.30
2015,06,30,10,31,21.30
2015,06,30,10,32,21.40
2015,06,30,10,33,21.40
2015,06,30,10,34,21.40
2015,06,30,10,35,21.50
2015,06,30,10,36,21.50
2015,06,30,10,37,21.50
2015,06,30,10,38,21.50
2015,06,30,10,39,21.50
2015,06,30,10,40,21.50
2015,06,30,10,41,21.50
2015,06,30,10,42,21.60
2015,06,30,10,43,21.60
2015,06,30,10,44,21.70
2015,06,30,10,45,21.80
2015,06,30,10,46,21.90
2015,06,30,10,47,21.90
2015,06,30,10,48,22.00
2015,06,30,10,49,22.10
2015,06,30,10,50,22.10
2015,06,30,10,51,22.10
2015,06,30,10,52,22.10
2015,06,30,10,53,22.10
2015,06,30,10,54,22.10
2015,06,30,10,55,22.10
2015,06,30,10,56,22.10
2015,06,30,10,57,22.10
2015,06,30,10,58,22.10
2015,06,30,10,59,22.10
2015,06,30,11,00,22.10
2015,06,30,11,01,22.10
2015,06,30,11,02,22.10
2015,06,30,11,03,22.20
2015,06,30,11,04,22.20
2015,06,30,11,05,22.20
2015,06,30,11,06,22.20
2015,06,30,11,07,22.20
2015,06,30,11,08,22.30
2015,06,30,11,09,22.30
2015,06,30,11,10,22.40
2015,06,30,11,11,22.40
2015,06,30,11,12,22.50
2015,06,30,11,13,22.50
2015,06,30,11,14,22.50
2015,06,30,11,15,22.60
2015,06,30,11,16,22.60
2015,06,30,11,17,22.60
2015,06,30,11,18,22.50
2015,06,30,11,19,22.50
2015,06,30,11,20,22.60
2015,06,30,11,21,22.60
2015,06,30,11,22,22.70
2015,06,30,11,23,22.80
2015,06,30,11,24,22.90
2015,06,30,11,25,22.90
2015,06,30,11,26,22.90
2015,06,30,11,27,22.80
2015,06,30,11,28,22.80
2015,06,30,11,29,22.70
2015,06,30,11,30,22.70
2015,06,30,11,31,22.80
2015,06,30,11,32,22.80
2015,06,30,11,33,22.80
2015,06,30,11,34,22.80
2015,06,30,11,35,22.80
2015,06,30,11,36,22.80
2015,06,30,11,37,22.80
2015,06,30,11,38,22.90
2015,06,30,11,39,22.90
2015,06,30,11,40,22.90
2015,06,30,11,41,22.90
2015,06,30,11,42,22.90
2015,06,30,11,43,22.90
2015,06,30,11,44,22.90
2015,06,30,11,45,22.80
2015,06,30,11,46,22.80
2015,06,30,11,47,22.80
2015,06,30,11,48,22.90
2015,06,30,11,49,23.10
2015,06,30,11,50,23.20
2015,06,30,11,51,23.30
2015,06,30,11,52,23.40
2015,06,30,11,53,23.40
2015,06,30,11,54,23.40
2015,06,30,11,55,23.40
2015,06,30,11,56,23.50
2015,06,30,11,57,23.50
2015,06,30,11,58,23.60
2015,06,30,11,59,23.50
2015,06,30,12,00,23.40
2015,06,30,12,01,23.30
2015,06,30,12,02,23.30
2015,06,30,12,03,23.40
2015,06,30,12,04,23.40
2015,06,30,12,05,23.50
2015,06,30,12,06,23.60
2015,06,30,12,07,23.60
2015,06,30,12,08,23.70
2015,06,30,12,09,23.70
2015,06,30,12,10,23.70
2015,06,30,12,11,23.80
2015,06,30,12,12,23.80
2015,06,30,12,13,23.80
2015,06,30,12,14,23.80
2015,06,30,12,15,23.80
2015,06,30,12,16,23.80
2015,06,30,12,17,23.80
2015,06,30,12,18,23.80
2015,06,30,12,19,23.80
2015,06,30,12,20,23.80
2015,06,30,12,21,23.70
2015,06,30,12,22,23.70
2015,06,30,12,23,23.70
2015,06,30,12,24,23.60
2015,06,30,12,25,23.60
2015,06,30,12,26,23.60
2015,06,30,12,27,23.70
2015,06,30,12,28,23.70
2015,06,30,12,29,23.70
2015,06,30,12,30,23.70
2015,06,30,12,31,23.60
2015,06,30,12,32,23.60
2015,06,30,12,33,23.50
2015,06,30,12,34,23.50
2015,06,30,12,35,23.50
2015,06,30,12,36,23.60
2015,06,30,12,37,23.70
2015,06,30,12,38,23.80
2015,06,30,12,39,23.80
2015,06,30,12,40,23.90
2015,06,30,12,41,23.90
2015,06,30,12,42,23.80
2015,06,30,12,43,23.80
2015,06,30,12,44,23.80
2015,06,30,12,45,23.80
2015,06,30,12,46,23.80
2015,06,30,12,47,23.80
2015,06,30,12,48,23.90
2015,06,30,12,49,23.90
2015,06,30,12,50,23.90
2015,06,30,12,51,23.90
2015,06,30,12,52,23.90
2015,06,30,12,53,23.90
2015,06,30,12,54,23.90
2015,06,30,12,55,23.90
2015,06,30,12,56,23.90
2015,06,30,12,57,23.80
2015,06,30,12,58,23.80
2015,06,30,12,59,23.90
2015,06,30,13,00,23.90
2015,06,30,13,01,24.00
2015,06,30,13,02,24.10
2015,06,30,13,03,24.10
2015,06,30,13,04,24.10
2015,06,30,13,05,24.10
2015,06,30,13,06,24.20
2015,06,30,13,07,24.20
2015,06,30,13,08,24.30
2015,06,30,13,09,24.30
2015,06,30,13,10,24.20
2015,06,30,13,11,24.20
2015,06,30,13,12,24.20
2015,06,30,13,13,24.10
2015,06,30,13,14,24.10
2015,06,30,13,15,24.10
2015,06,30,13,16,24.10
2015,06,30,13,17,24.10
2015,06,30,13,18,24.10
2015,06,30,13,19,24.10
2015,06,30,13,20,24.10
2015,06,30,13,21,24.10
2015,06,30,13,22,24.10
2015,06,30,13,23,24.10
2015,06,30,13,24,24.10
2015,06,30,13,25,24.10
2015,06,30,13,26,24.20
2015,06,30,13,27,24.20
2015,06,30,13,28,24.30
2015,06,30,13,29,24.30
2015,06,30,13,30,24.40
2015,06,30,13,31,24.40
2015,06,30,13,32,24.50
2015,06,30,13,33,24.50
2015,06,30,13,34,24.60
2015,06,30,13,35,24.60
2015,06,30,13,36,24.70
2015,06,30,13,37,24.60
2015,06,30,13,38,24.60
2015,06,30,13,39,24.60
2015,06,30,13,40,24.50
2015,06,30,13,41,24.50
2015,06,30,13,42,24.60
2015,06,30,13,43,24.60
2015,06,30,13,44,24.60
2015,06,30,13,45,24.50
2015,06,30,13,46,24.50
2015,06,30,13,47,24.60
2015,06,30,13,48,24.60
2015,06,30,13,49,24.60
2015,06,30,13,50,24.60
2015,06,30,13,51,24.70
2015,06,30,13,52,24.70
2015,06,30,13,53,24.60
2015,06,30,13,54,24.60
2015,06,30,13,55,24.60
2015,06,30,13,56,24.70
2015,06,30,13,57,24.70
2015,06,30,13,58,24.70
2015,06,30,13,59,24.70
2015,06,30,14,00,24.70
2015,06,30,14,01,24.70
2015,06,30,14,02,24.70
2015,06,30,14,03,24.70
2015,06,30,14,04,24.60
2015,06,30,14,05,24.60
2015,06,30,14,06,24.50
2015,06,30,14,07,24.50
2015,06,30,14,08,24.60
2015,06,30,14,09,24.60
2015,06,30,14,10,24.70
2015,06,30,14,11,24.80
2015,06,30,14,12,24.90
2015,06,30,14,13,24.90
2015,06,30,14,14,24.90
2015,06,30,14,15,25.00
2015,06,30,14,16,25.00
2015,06,30,14,17,25.00
2015,06,30,14,18,25.10
2015,06,30,14,19,25.10
2015,06,30,14,20,25.20
2015,06,30,14,21,25.20
2015,06,30,14,22,25.20
2015,06,30,14,23,25.30
2015,06,30,14,24,25.30
2015,06,30,14,25,25.40
2015,06,30,14,26,25.40
2015,06,30,14,27,25.40
2015,06,30,14,28,25.40
2015,06,30,14,29,25.40
2015,06,30,14,30,25.40
2015,06,30,14,31,25.40
2015,06,30,14,32,25.40
2015,06,30,14,33,25.40
2015,06,30,14,34,25.50
2015,06,30,14,35,25.50
2015,06,30,14,36,25.40
2015,06,30,14,37,25.40
2015,06,30,14,38,25.30
2015,06,30,14,39,25.30
2015,06,30,14,40,25.20
2015,06,30,14,41,25.20
2015,06,30,14,42,25.20
2015,06,30,14,43,25.10
2015,06,30,14,44,25.10
2015,06,30,14,45,25.10
2015,06,30,14,46,25.20
2015,06,30,14,47,25.20
2015,06,30,14,48,25.30
2015,06,30,14,49,25.40
2015,06,30,14,50,25.40
2015,06,30,14,51,25.40
2015,06,30,14,52,25.50
2015,06,30,14,53,25.60
2015,06,30,14,54,25.70
2015,06,30,14,55,25.80
2015,06,30,14,56,25.90
2015,06,30,14,57,25.90
2015,06,30,14,58,26.00
2015,06,30,14,59,26.00
2015,06,30,15,00,26.10
2015,06,30,15,01,26.10
2015,06,30,15,02,26.10
2015,06,30,15,03,26.10
2015,06,30,15,04,26.10
2015,06,30,15,05,26.10
2015,06,30,15,06,26.00
2015,06,30,15,07,25.90
2015,06,30,15,08,25.90
2015,06,30,15,09,25.90
2015,06,30,15,10,25.90
2015,06,30,15,11,25.90
2015,06,30,15,12,25.80
2015,06,30,15,13,25.80
2015,06,30,15,14,25.80
2015,06,30,15,15,25.80
2015,06,30,15,16,25.80
2015,06,30,15,17,25.90
2015,06,30,15,18,25.90
2015,06,30,15,19,26.00
2015,06,30,15,20,26.00
2015,06,30,15,21,26.10
2015,06,30,15,22,26.10
2015,06,30,15,23,26.00
2015,06,30,15,24,26.00
2015,06,30,15,25,26.10
2015,06,30,15,26,26.20
2015,06,30,15,27,26.20
2015,06,30,15,28,26.20
2015,06,30,15,29,26.30
2015,06,30,15,30,26.20
2015,06,30,15,31,26.20
2015,06,30,15,32,26.20
2015,06,30,15,33,26.20
2015,06,30,15,34,26.20
2015,06,30,15,35,26.20
2015,06,30,15,36,26.20
2015,06,30,15,37,26.20
2015,06,30,15,38,26.20
2015,06,30,15,39,26.20
2015,06,30,15,40,26.30
2015,06,30,15,41,26.40
2015,06,30,15,42,26.40
2015,06,30,15,43,26.50
2015,06,30,15,44,26.40
2015,06,30,15,45,26.50
2015,06,30,15,46,26.50
2015,06,30,15,47,26.60
2015,06,30,15,48,26.60
2015,06,30,15,49,26.70
2015,06,30,15,50,26.70
2015,06,30,15,51,26.70
2015,06,30,15,52,26.60
2015,06,30,15,53,26.50
2015,06,30,15,54,26.40
2015,06,30,15,55,26.40
2015,06,30,15,56,26.30
2015,06,30,15,57,26.30
2015,06,30,15,58,26.30
2015,06,30,15,59,26.30
2015,06,30,16,00,26.20
2015,06,30,16,01,26.20
2015,06,30,16,02,26.20
2015,06,30,16,03,26.20
2015,06,30,16,04,26.30
2015,06,30,16,05,26.30
2015,06,30,16,06,26.30
2015,06,30,16,07,26.40
2015,06,30,16,08,26.40
2015,06,30,16,09,26.40
2015,06,30,16,10,26.40
2015,06,30,16,11,26.40
2015,06,30,16,12,26.40
2015,06,30,16,13,26.40
2015,06,30,16,14,26.30
2015,06,30,16,15,26.20
2015,06,30,16,16,26.20
2015,06,30,16,17,26.20
2015,06,30,16,18,26.10
2015,06,30,16,19,26.10
2015,06,30,16,20,26.20
2015,06,30,16,21,26.30
2015,06,30,16,22,26.30
2015,06,30,16,23,26.20
2015,06,30,16,24,26.10
2015,06,30,16,25,26.00
2015,06,30,16,26,25.90
2015,06,30,16,27,25.90
2015,06,30,16,28,25.90
2015,06,30,16,29,25.90
2015,06,30,16,30,25.90
2015,06,30,16,31,25.90
2015,06,30,16,32,25.90
2015,06,30,16,33,25.80
2015,06,30,16,34,25.80
2015,06,30,16,35,25.80
2015,06,30,16,36,25.80
2015,06,30,16,37,25.80
2015,06,30,16,38,25.80
2015,06,30,16,39,25.80
2015,06,30,16,40,25.80
2015,06,30,16,41,25.90
2015,06,30,16,42,25.90
2015,06,30,16,43,25.90
2015,06,30,16,44,25.90
2015,06,30,16,45,25.90
2015,06,30,16,46,25.90
2015,06,30,16,47,25.90
2015,06,30,16,48,25.90
2015,06,30,16,49,25.90
2015,06,30,16,50,25.90
2015,06,30,16,51,25.90
2015,06,30,16,52,26.00
2015,06,30,16,53,26.10
2015,06,30,16,54,26.10
2015,06,30,16,55,26.10
2015,06,30,16,56,26.10
2015,06,30,16,57,26.20
2015,06,30,16,58,26.20
2015,06,30,16,59,26.10
2015,06,30,17,00,26.10
2015,06,30,17,01,26.10
2015,06,30,17,02,26.10
2015,06,30,17,03,26.10
2015,06,30,17,04,26.10
2015,06,30,17,05,26.10
2015,06,30,17,06,26.10
2015,06,30,17,07,26.10
2015,06,30,17,08,26.10
2015,06,30,17,09,26.20
2015,06,30,17,10,26.20
2015,06,30,17,11,26.30
2015,06,30,17,12,26.30
2015,06,30,17,13,26.30
2015,06,30,17,14,26.30
2015,06,30,17,15,26.30
2015,06,30,17,16,26.30
2015,06,30,17,17,26.20
2015,06,30,17,18,26.10
2015,06,30,17,19,26.10